Volver al catálogo

COSMOS 1275 DEB

ActivoPO
NORAD 42226·DEBRIS·🇷🇺 Russia

Lanzado Jun 4, 1981 desde Plesetsk Cosmodrome

Loading…

Próximos Pases (próximas 24 horas)

TLE

EnvejeciendoSource: Space-Track

Época: Sep 4, 2026, 16:38 UTC

1 42226U 81053US  26247.69316864  .00000414  00000-0  44233-3 0  9995
2 42226  82.9544 146.6671 0111170 326.1485  33.2604 13.69163741638265

Sigue COSMOS 1275 DEB en tiempo real con AllMySat

Download on the App Store